(304125) = 2002 GG155 = 2004 XQ55 = 2006 KU7

Discovered at Mount Lemmon on 2006-05-19 by Mt. Lemmon Survey.

Orbit

Orbit type: Main Belt

Note: WebGL enabled browser required.

epoch2024-03-31.0
epoch JD2460400.5
perihelion date2021-01-19.64496
perihelion JD2459234.14496
argument of perihelion (°)168.39836
ascending node (°)59.83206
inclination (°)7.46401
eccentricity0.0752672
perihelion distance (AU)2.2068653
Tisserand w.r.t. Jupiter3.5
ΔV w.r.t. Earth (km/sec)9.5
semimajor axis (AU)2.3864898
mean anomaly (°)311.81374
mean daily motion (°/day)0.26734030
aphelion distance (AU)2.566
period (years)3.69
P-vector [x]-0.66466335
P-vector [y]-0.69546278
P-vector [z]-0.27304606
Q-vector [x]0.73865375
Q-vector [y]-0.55672448
Q-vector [z]-0.38006379
absolute magnitude17.25
phase slope0.15
uncertainty0
referenceMPEC 2024-F28
observations used281
oppositions15
arc length (days)8522
first opposition used2000
last opposition used2024
residual rms (arc-secs)0.69
perturbers coarse indicatorM-v
perturbers precise indicator003Ek
first observation date used2000-11-17.0
last observation date used2024-03-18.0
computer nameMPCLINUX
JD of orbit computation2456937.366850
perihelion JD uncertainty (days)9.9977E-05
argument of perihelion uncertainty (°)3.7965E-05
ascending node uncertainty (°)2.8285E-05
inclination uncertainty (°)3.9220E-06
eccentricity uncertainty 4.1001E-08
perihelion distance uncertainty (AU)9.2812E-08
Minimum Orbit Intersection Distances (in AU)
for orbit epoch: 2460400.5, reference: E2024-GF4
Mercury1.74824
Venus1.48295
Earth1.19684
Mars0.61863
Jupiter2.40815
Saturn6.51839
Uranus16.1404
Neptune27.2617

Observations

286 total observations over interval: 2000 11 17.38846 – 2024 03 18.333624
These data are available for download (format description).

Date (UT) J2000 RA J2000 Dec Magn Location Ref
2000 11 17.38846 03 49 06.19 +19 32 52.8 21.7 V 691 – Steward Observatory, Kitt Peak-Spacewatch MPS 173984
2000 11 17.41133 03 49 04.60 +19 32 51.5 20.4 V 691 – Steward Observatory, Kitt Peak-Spacewatch MPS 173984
2000 11 17.43459 03 49 02.96 +19 32 51.2 21.0 V 691 – Steward Observatory, Kitt Peak-Spacewatch MPS 173984
2002 04 13.15261 12 26 37.72 +07 46 51.2 20.5   644 – Palomar Mountain/NEAT MPS 57571
2002 04 13.17412 12 26 36.59 +07 46 52.8 20.5   644 – Palomar Mountain/NEAT MPS 57571
2002 04 13.19533 12 26 35.38 +07 46 54.2 20.5   644 – Palomar Mountain/NEAT MPS 57571
2002 04 16.26970 12 23 56.94 +07 48 50.4 20.1   704 – Lincoln Laboratory ETS, New Mexico MPS 57571
2002 04 16.28374 12 23 56.26 +07 48 50.3 20.2   704 – Lincoln Laboratory ETS, New Mexico MPS 57571
2002 04 16.31181 12 23 54.89 +07 48 50.4 20.2   704 – Lincoln Laboratory ETS, New Mexico MPS 57571
2004 12 10.28152 06 31 53.82 +29 14 23.1 20.9 V 691 – Steward Observatory, Kitt Peak-Spacewatch MPS 121874
2004 12 10.31399 06 31 51.79 +29 14 31.6 20.6 V 691 – Steward Observatory, Kitt Peak-Spacewatch MPS 121874
2004 12 10.34005 06 31 50.14 +29 14 38.6 21.0 V 691 – Steward Observatory, Kitt Peak-Spacewatch MPS 121874
2004 12 14.28512 06 27 40.06 +29 31 20.9 20.7 V 691 – Steward Observatory, Kitt Peak-Spacewatch MPS 121874
2004 12 14.31051 06 27 38.31 +29 31 27.2 20.4 V 691 – Steward Observatory, Kitt Peak-Spacewatch MPS 121874
2004 12 14.33603 06 27 36.58 +29 31 33.6 20.5 V 691 – Steward Observatory, Kitt Peak-Spacewatch MPS 121874
2006 04 25.40183 16 04 43.75 -18 36 42.3 20.2 V G96 – Mt. Lemmon Survey MPS 173984
2006 04 25.41176 16 04 43.24 -18 36 43.3 19.8 V G96 – Mt. Lemmon Survey MPS 173984
2006 04 25.41624 16 04 43.10 -18 36 44.0 20.1 V G96 – Mt. Lemmon Survey MPS 173984
2006 04 25.42073 16 04 42.88 -18 36 44.0 19.7 V G96 – Mt. Lemmon Survey MPS 173984
2006 04 25.43522 16 04 42.27 -18 36 45.6 19.7 V G96 – Mt. Lemmon Survey MPS 173984
2006 04 25.44113 16 04 41.98 -18 36 46.1 19.8 V G96 – Mt. Lemmon Survey MPS 173984
2006 04 25.44712 16 04 41.73 -18 36 47.1 19.9 V G96 – Mt. Lemmon Survey MPS 173984
2006 04 25.45307 16 04 41.52 -18 36 47.5 20.1 V G96 – Mt. Lemmon Survey MPS 173984
2006 05 19.27951 15 42 15.87 -19 08 55.2 19.1 V G96 – Mt. Lemmon Survey MPS 172156
2006 05 19.28774 15 42 15.30 -19 08 55.6 19.0 V G96 – Mt. Lemmon Survey MPS 172156
2006 05 19.30428 15 42 14.18 -19 08 56.5 19.2 V G96 – Mt. Lemmon Survey MPS 172156
2006 05 19.34582 15 42 11.37 -19 08 59.0 19.3 V G96 – Mt. Lemmon Survey MPS 172156
2006 05 19.35399 15 42 10.83 -19 08 59.5 19.1 V G96 – Mt. Lemmon Survey MPS 172156
2006 05 19.36216 15 42 10.26 -19 09 00.7 18.9 V G96 – Mt. Lemmon Survey MPS 172156
2006 05 20.36786 15 41 05.18 -19 10 01.2 19.8 V 691 – Steward Observatory, Kitt Peak-Spacewatch MPS 172156
2006 05 20.38513 15 41 04.00 -19 10 02.1 19.8 V 691 – Steward Observatory, Kitt Peak-Spacewatch MPS 172156
2006 05 20.40247 15 41 02.85 -19 10 03.1 19.8 V 691 – Steward Observatory, Kitt Peak-Spacewatch MPS 172156
2006 06 15.24363 15 17 46.71 -19 39 26.5   691 – Steward Observatory, Kitt Peak-Spacewatch MPS 173984
2006 06 15.26156 15 17 46.06 -19 39 28.1   691 – Steward Observatory, Kitt Peak-Spacewatch MPS 173984
2006 06 15.27890 15 17 45.38 -19 39 29.9   691 – Steward Observatory, Kitt Peak-Spacewatch MPS 173984
2007 10 21.23250 01 05 50.85 -01 32 20.2 21.0 V G96 – Mt. Lemmon Survey MPS 222554
2007 10 21.23766 01 05 50.56 -01 32 21.0 21.0 V G96 – Mt. Lemmon Survey MPS 222554
2007 10 21.24287 01 05 50.28 -01 32 22.0 20.6 V G96 – Mt. Lemmon Survey MPS 222554
2007 10 21.24808 01 05 49.95 -01 32 22.5 20.6 V G96 – Mt. Lemmon Survey MPS 222554
2009 01 27.57807 09 17 18.15 +28 16 17.3 20.1 R D29 – Purple Mountain Observatory, XuYi Station MPS 272637
2009 01 27.59299 09 17 17.18 +28 16 23.7 20.5 R D29 – Purple Mountain Observatory, XuYi Station MPS 272637
2009 01 27.60783 09 17 16.20 +28 16 28.8 20.4 R D29 – Purple Mountain Observatory, XuYi Station MPS 272637
2009 01 27.62388 09 17 15.14 +28 16 35.0 19.4 R D29 – Purple Mountain Observatory, XuYi Station MPS 272637
2011 10 21.36075 03 41 44.53 +16 45 27.6 21.0 V 691 – Steward Observatory, Kitt Peak-Spacewatch MPS 395038
2011 10 21.37851 03 41 43.69 +16 45 27.4 20.7 V 691 – Steward Observatory, Kitt Peak-Spacewatch MPS 395038
2011 10 21.39627 03 41 42.83 +16 45 27.0 20.9 V 691 – Steward Observatory, Kitt Peak-Spacewatch MPS 395038
2011 10 25.32239 03 38 33.89 +16 43 30.1   691 – Steward Observatory, Kitt Peak-Spacewatch MPS 396321
2011 10 25.34016 03 38 32.94 +16 43 30.9   691 – Steward Observatory, Kitt Peak-Spacewatch MPS 396321
2011 10 25.35793 03 38 31.94 +16 43 28.9   691 – Steward Observatory, Kitt Peak-Spacewatch MPS 396321
2011 10 29.33421 03 34 58.65 +16 40 45.0   691 – Steward Observatory, Kitt Peak-Spacewatch MPS 398220
2011 10 29.35196 03 34 57.59 +16 40 43.9   691 – Steward Observatory, Kitt Peak-Spacewatch MPS 398220
2011 10 29.36971 03 34 56.56 +16 40 43.5   691 – Steward Observatory, Kitt Peak-Spacewatch MPS 398220
2011 11 15.38308 03 17 09.60 +16 22 45.6 20.3 V G96 – Mt. Lemmon Survey MPS 401041
2011 11 15.39004 03 17 09.09 +16 22 45.4 20.0 V G96 – Mt. Lemmon Survey MPS 401041
2011 11 15.39700 03 17 08.62 +16 22 45.0 20.5 V G96 – Mt. Lemmon Survey MPS 401041
2011 11 15.40393 03 17 08.19 +16 22 44.4 20.2 V G96 – Mt. Lemmon Survey MPS 401041
2011 11 18.27045 03 14 00.56 +16 19 19.7 20.3 V G96 – Mt. Lemmon Survey MPS 401041
2011 11 18.27856 03 14 00.02 +16 19 19.0 20.4 V G96 – Mt. Lemmon Survey MPS 401041
2011 11 18.28663 03 13 59.48 +16 19 18.6 20.3 V G96 – Mt. Lemmon Survey MPS 401041
2011 11 18.29466 03 13 58.90 +16 19 17.7 20.1 V G96 – Mt. Lemmon Survey MPS 401041
2011 11 23.30477 03 08 37.57 +16 13 36.9 20.2 V G96 – Mt. Lemmon Survey MPS 402282
2011 11 23.30992 03 08 37.24 +16 13 36.1 20.2 V G96 – Mt. Lemmon Survey MPS 402282
2011 11 23.31515 03 08 36.96 +16 13 35.9 20.2 V G96 – Mt. Lemmon Survey MPS 402282
2011 11 23.32038 03 08 36.60 +16 13 35.3 20.6 V G96 – Mt. Lemmon Survey MPS 402282
2011 11 23.35087 03 08 34.62 +16 13 33.2 20.4 V G96 – Mt. Lemmon Survey MPS 402282
2011 11 23.35749 03 08 34.22 +16 13 32.5 20.4 V G96 – Mt. Lemmon Survey MPS 402282
2011 11 23.36406 03 08 33.79 +16 13 32.0 20.5 V G96 – Mt. Lemmon Survey MPS 402282
2011 11 23.37074 03 08 33.32 +16 13 31.8 20.4 V G96 – Mt. Lemmon Survey MPS 402282
2011 11 24.19193 03 07 42.42 +16 12 39.6 20.4 V G96 – Mt. Lemmon Survey MPS 428326
2011 11 24.20004 03 07 41.95 +16 12 39.2 20.6 V G96 – Mt. Lemmon Survey MPS 428326
2011 11 24.20785 03 07 41.44 +16 12 38.5 20.4 V G96 – Mt. Lemmon Survey MPS 428326
2011 11 24.21566 03 07 40.94 +16 12 38.0 20.4 V G96 – Mt. Lemmon Survey MPS 428326
2011 11 24.29558 03 07 36.078 +16 12 33.86 21.3 g F51 – Pan-STARRS 1, Haleakala MPS 402282
2011 11 24.30841 03 07 35.265 +16 12 33.23 20.8 r F51 – Pan-STARRS 1, Haleakala MPS 402282
2011 11 24.31959 03 07 34.545 +16 12 32.57 20.5 r F51 – Pan-STARRS 1, Haleakala MPS 402282
2011 12 02.25513 02 59 52.738 +16 05 41.70 20.8 i F51 – Pan-STARRS 1, Haleakala MPS 403804
2011 12 02.26789 02 59 52.038 +16 05 41.32 20.7 i F51 – Pan-STARRS 1, Haleakala MPS 403804
2011 12 02.28144 02 59 51.278 +16 05 40.62 20.9 r F51 – Pan-STARRS 1, Haleakala MPS 403804
2011 12 02.29340 02 59 50.616 +16 05 40.41 20.8 r F51 – Pan-STARRS 1, Haleakala MPS 403804
2013 03 14.23191 12 08 10.39 +12 07 03.2 19.9 G G45 – Space Surveillance Telescope, Atom Site MPS 1609264
2013 03 14.24712 12 08 09.50 +12 07 06.6 20.2 G G45 – Space Surveillance Telescope, Atom Site MPS 1609264
2013 03 14.27650 12 08 07.70 +12 07 16.9 19.9 G G45 – Space Surveillance Telescope, Atom Site MPS 1609264
2013 03 14.34365 12 08 03.72 +12 07 37.2 20.6 G G45 – Space Surveillance Telescope, Atom Site MPS 1609264
2013 03 14.35510 12 08 03.03 +12 07 40.6 20.5 G G45 – Space Surveillance Telescope, Atom Site MPS 1609264
2013 03 14.38459 12 08 01.27 +12 07 49.7 20.8 G G45 – Space Surveillance Telescope, Atom Site MPS 1609264
2013 03 14.51139 12 07 53.77 +12 08 27.9 19.5 G G45 – Space Surveillance Telescope, Atom Site MPS 1609264
2013 03 15.22858 12 07 12.78 +12 12 04.8 20.0 G G45 – Space Surveillance Telescope, Atom Site MPS 1609264
